RYR2SM EIDW-EGGP

Flight info

Callsign RYR2SM
Flight time 0h 34m
Altitude 17000
Route BOFUM
Aircraft B738/M-SDE2E3FGHIRWXY/LB1

Departure

Time 2026-05-04 13:50
Airport Dublin Airport (EIDW)

Arrival

Time 2026-05-04 14:25
Airport Liverpool John Lennon Airport (EGGP)
Time Latitude Longitude Altitude Speed Heading
2026-05-04 13:30 53.43006 -6.24944 250 ft 0 kts
2026-05-04 13:42 53.43003 -6.24944 250 ft 2 kts
2026-05-04 13:42 53.42988 -6.24946 250 ft 2 kts
2026-05-04 13:42 53.42979 -6.24948 250 ft 2 kts
2026-05-04 13:43 53.42964 -6.24944 250 ft 2 kts 330°
2026-05-04 13:43 53.42952 -6.24927 250 ft 2 kts 304°
2026-05-04 13:43 53.42947 -6.24907 250 ft 0 kts 279°
2026-05-04 13:43 53.42947 -6.24896 250 ft 1 kts 275°
2026-05-04 13:44 53.42947 -6.24894 250 ft 0 kts 275°
2026-05-04 13:46 53.42951 -6.24962 250 ft 14 kts 277°
2026-05-04 13:46 53.42962 -6.25164 250 ft 19 kts 274°
2026-05-04 13:46 53.42903 -6.25323 250 ft 18 kts 162°
2026-05-04 13:46 53.42782 -6.25277 250 ft 19 kts 212°
2026-05-04 13:47 53.42668 -6.25474 250 ft 29 kts 226°
2026-05-04 13:47 53.42500 -6.25752 250 ft 35 kts 224°
2026-05-04 13:47 53.42329 -6.26048 249 ft 34 kts 227°
2026-05-04 13:47 53.42272 -6.26387 250 ft 30 kts 276°
2026-05-04 13:48 53.42292 -6.26734 249 ft 29 kts 272°
2026-05-04 13:48 53.42307 -6.27070 249 ft 28 kts 276°
2026-05-04 13:48 53.42328 -6.27406 249 ft 31 kts 277°
2026-05-04 13:48 53.42350 -6.27764 249 ft 30 kts 274°
2026-05-04 13:49 53.42367 -6.28108 249 ft 28 kts 275°
2026-05-04 13:49 53.42342 -6.28320 249 ft 14 kts 179°
2026-05-04 13:49 53.42245 -6.28241 249 ft 17 kts 135°
2026-05-04 13:49 53.42187 -6.27953 249 ft 38 kts 93°
2026-05-04 13:50 53.42147 -6.27245 250 ft 92 kts 95°
2026-05-04 13:50 53.42068 -6.25824 250 ft 151 kts 95°
2026-05-04 13:50 53.41929 -6.23983 758 ft 159 kts 94°
2026-05-04 13:50 53.41846 -6.22111 1288 ft 173 kts 91°
2026-05-04 13:51 53.41758 -6.20011 1838 ft 186 kts 92°
2026-05-04 13:51 53.41639 -6.17765 2207 ft 205 kts 92°
2026-05-04 13:51 53.41497 -6.15292 2643 ft 221 kts 93°
2026-05-04 13:51 53.41348 -6.12677 3130 ft 235 kts 93°
2026-05-04 13:52 53.41020 -6.06901 4068 ft 264 kts 94°
2026-05-04 13:52 53.40864 -6.03800 4776 ft 267 kts 89°
2026-05-04 13:52 53.41204 -6.00801 5469 ft 267 kts 67°
2026-05-04 13:53 53.41971 -5.97960 6175 ft 270 kts 62°
2026-05-04 13:53 53.42788 -5.95122 6901 ft 274 kts 63°
2026-05-04 13:53 53.43560 -5.92233 7652 ft 276 kts 65°
2026-05-04 13:54 53.45036 -5.86258 8958 ft 283 kts 66°
2026-05-04 13:54 53.45776 -5.83192 9080 ft 284 kts 66°
2026-05-04 13:54 53.47260 -5.77001 10108 ft 286 kts 67°
2026-05-04 13:55 53.48013 -5.73852 10672 ft 297 kts 67°
2026-05-04 13:55 53.49628 -5.67128 11510 ft 327 kts 67°
2026-05-04 13:55 53.50493 -5.63526 12129 ft 335 kts 67°
2026-05-04 13:56 53.51358 -5.59917 12898 ft 338 kts 67°
2026-05-04 13:56 53.52224 -5.56295 13881 ft 334 kts 67°
2026-05-04 13:56 53.53527 -5.48949 15766 ft 330 kts 81°
2026-05-04 13:57 53.53650 -5.45104 16602 ft 329 kts 88°
2026-05-04 13:57 53.53605 -5.41228 16976 ft 333 kts 90°
2026-05-04 13:58 53.53247 -5.29767 17065 ft 329 kts 91°
2026-05-04 13:58 53.53032 -5.22080 17068 ft 329 kts 91°
2026-05-04 13:58 53.52931 -5.18223 17069 ft 329 kts 91°
2026-05-04 13:59 53.52829 -5.14404 17067 ft 328 kts 91°
2026-05-04 13:59 53.52715 -5.10557 17071 ft 329 kts 91°
2026-05-04 13:59 53.52471 -5.02909 17072 ft 328 kts 91°
2026-05-04 14:00 53.52347 -4.99098 17072 ft 328 kts 91°
2026-05-04 14:00 53.52099 -4.91430 17069 ft 329 kts 91°
2026-05-04 14:00 53.51972 -4.87540 17067 ft 329 kts 91°
2026-05-04 14:01 53.51845 -4.83707 17067 ft 330 kts 91°
2026-05-04 14:01 53.51718 -4.79876 17070 ft 329 kts 91°
2026-05-04 14:01 53.51462 -4.72214 17058 ft 329 kts 91°
2026-05-04 14:02 53.51332 -4.68384 17064 ft 329 kts 91°
2026-05-04 14:02 53.51200 -4.64531 17062 ft 329 kts 91°
2026-05-04 14:02 53.51068 -4.60698 17061 ft 328 kts 91°
2026-05-04 14:02 53.50935 -4.56883 17058 ft 329 kts 91°
2026-05-04 14:03 53.50800 -4.53052 17055 ft 329 kts 91°
2026-05-04 14:03 53.50663 -4.49223 17055 ft 329 kts 92°
2026-05-04 14:03 53.50525 -4.45378 17049 ft 329 kts 91°
2026-05-04 14:03 53.50388 -4.41587 17059 ft 329 kts 92°
2026-05-04 14:04 53.50110 -4.34050 17053 ft 314 kts 92°
2026-05-04 14:04 53.49973 -4.30413 17058 ft 308 kts 92°
2026-05-04 14:04 53.49839 -4.26812 16973 ft 314 kts 92°
2026-05-04 14:05 53.49564 -4.19512 16242 ft 311 kts 92°
2026-05-04 14:05 53.49427 -4.15941 15856 ft 309 kts 92°
2026-05-04 14:05 53.49290 -4.12398 15485 ft 307 kts 92°
2026-05-04 14:06 53.49149 -4.08775 15080 ft 305 kts 92°
2026-05-04 14:06 53.49011 -4.05255 14702 ft 303 kts 93°
2026-05-04 14:06 53.48872 -4.01752 14324 ft 301 kts 93°
2026-05-04 14:06 53.48705 -3.98276 13955 ft 298 kts 95°
2026-05-04 14:07 53.48362 -3.94839 13566 ft 297 kts 102°
2026-05-04 14:07 53.47790 -3.91520 13185 ft 296 kts 107°
2026-05-04 14:07 53.47114 -3.88296 12815 ft 294 kts 109°
2026-05-04 14:07 53.46412 -3.85079 12444 ft 293 kts 109°
2026-05-04 14:08 53.45719 -3.81864 12072 ft 291 kts 109°
2026-05-04 14:08 53.45053 -3.78713 11705 ft 290 kts 108°
2026-05-04 14:08 53.44389 -3.75524 11334 ft 288 kts 108°
2026-05-04 14:08 53.43737 -3.72378 10969 ft 287 kts 108°
2026-05-04 14:09 53.42437 -3.66123 10253 ft 284 kts 108°
2026-05-04 14:09 53.41788 -3.62987 9928 ft 280 kts 106°
2026-05-04 14:10 53.41448 -3.56745 9339 ft 270 kts 81°
2026-05-04 14:10 53.41729 -3.53638 9017 ft 269 kts 79°
2026-05-04 14:10 53.42017 -3.50531 8660 ft 267 kts 80°
2026-05-04 14:10 53.42262 -3.47503 8352 ft 266 kts 81°
2026-05-04 14:11 53.42482 -3.44432 8016 ft 265 kts 82°
2026-05-04 14:11 53.42895 -3.38349 7376 ft 261 kts 82°
2026-05-04 14:11 53.43099 -3.35394 7225 ft 252 kts 82°
2026-05-04 14:12 53.43303 -3.32529 7158 ft 240 kts 82°
2026-05-04 14:12 53.43490 -3.29831 7086 ft 229 kts 84°
2026-05-04 14:12 53.43037 -3.24581 7045 ft 235 kts 107°
2026-05-04 14:13 53.42537 -3.21999 7039 ft 234 kts 107°
2026-05-04 14:13 53.42055 -3.19386 7038 ft 235 kts 106°
2026-05-04 14:13 53.41600 -3.16767 7043 ft 235 kts 105°
2026-05-04 14:13 53.41150 -3.14121 7044 ft 235 kts 105°
2026-05-04 14:14 53.40705 -3.11501 7045 ft 236 kts 105°
2026-05-04 14:14 53.39801 -3.06206 7044 ft 235 kts 105°
2026-05-04 14:14 53.39353 -3.03589 7047 ft 235 kts 105°
2026-05-04 14:15 53.38455 -2.98351 6996 ft 233 kts 105°
2026-05-04 14:15 53.37568 -2.93196 6598 ft 234 kts 105°
2026-05-04 14:16 53.36665 -2.87959 6085 ft 232 kts 105°
2026-05-04 14:16 53.36218 -2.85374 5831 ft 231 kts 105°
2026-05-04 14:17 53.35332 -2.80250 5345 ft 226 kts 105°
2026-05-04 14:17 53.34903 -2.77778 5262 ft 217 kts 105°
2026-05-04 14:17 53.34049 -2.72828 5117 ft 225 kts 102°
2026-05-04 14:18 53.34090 -2.70254 4944 ft 224 kts 66°
2026-05-04 14:18 53.36102 -2.66449 4439 ft 218 kts 47°
2026-05-04 14:19 53.37811 -2.62357 3974 ft 208 kts 57°
2026-05-04 14:19 53.38548 -2.60322 3746 ft 203 kts 57°
2026-05-04 14:19 53.38995 -2.58122 3510 ft 200 kts 88°
2026-05-04 14:19 53.38643 -2.55934 3305 ft 196 kts 117°
2026-05-04 14:20 53.37825 -2.54139 3102 ft 192 kts 135°
2026-05-04 14:20 53.36673 -2.53099 2897 ft 192 kts 171°
2026-05-04 14:20 53.35379 -2.53469 2694 ft 190 kts 211°
2026-05-04 14:21 53.34434 -2.57190 2299 ft 183 kts 275°
2026-05-04 14:21 53.34460 -2.59341 2104 ft 180 kts 268°
2026-05-04 14:21 53.34388 -2.61366 1970 ft 173 kts 268°
2026-05-04 14:21 53.34311 -2.63384 1965 ft 174 kts 267°
2026-05-04 14:22 53.34229 -2.65395 1961 ft 174 kts 267°
2026-05-04 14:22 53.34143 -2.67415 1950 ft 175 kts 267°
2026-05-04 14:22 53.34054 -2.69463 1744 ft 175 kts 267°
2026-05-04 14:22 53.33966 -2.71474 1502 ft 173 kts 267°
2026-05-04 14:23 53.33789 -2.75451 1032 ft 165 kts 267°
2026-05-04 14:23 53.33705 -2.77316 804 ft 157 kts 266°
2026-05-04 14:23 53.33628 -2.79043 603 ft 144 kts 266°
2026-05-04 14:24 53.33556 -2.80699 415 ft 141 kts 266°
2026-05-04 14:24 53.33487 -2.82326 231 ft 140 kts 266°
2026-05-04 14:24 53.33410 -2.83944 74 ft 135 kts 266°
2026-05-04 14:24 53.33351 -2.85220 72 ft 73 kts 265°
2026-05-04 14:25 53.33324 -2.85816 72 ft 41 kts 265°
2026-05-04 14:25 53.33407 -2.86429 72 ft 21 kts 357°
2026-05-04 14:25 53.33485 -2.86324 72 ft 14 kts 27°
2026-05-04 14:26 53.33575 -2.86283 72 ft 13 kts 46°
2026-05-04 14:26 53.33590 -2.86140 72 ft 12 kts 85°
2026-05-04 14:26 53.33595 -2.86002 72 ft 11 kts 88°
2026-05-04 14:26 53.33599 -2.85873 72 ft 10 kts 85°
2026-05-04 14:27 53.33628 -2.85779 72 ft 9 kts
2026-05-04 14:27 53.33653 -2.85781 72 ft 0 kts 355°